User: anonymous   Login
Location: Unspecified
(0.0000°N, 0.0000°E)
Time: 23:17:30
(UTC+00:00)
Language:

USA 110 - Orbit

View from above orbital plane
View from above orbital plane
View from above satellite
View from above satellite

Ground track
Ground track

The orbit data is extracted from the following two-line orbital elements,

1 23567U 95022A   17284.69598550 0.00000000  00000-0  00000-0 0    03
2 23567  13.9547  37.8518 0065352  96.8897 263.9227  1.00270000    05
Epoch (UTC): 11 October 2017 16:42:13
Eccentricity: 0.0065352
inclination: 13.9547°
perigee height: 35511 km
apogee height: 36062 km
right ascension of ascending node: 37.8518°
argument of perigee: 96.8897°
revolutions per day: 1.00270000
mean anomaly at epoch: 263.9227°
orbit number at epoch: 0

The dashed part of the orbit path shows where the satellite is in the earth's shadow,  

DLR